TimeIDT,TemperatureF,Dew PointF,Humidity,Sea Level PressureIn,VisibilityMPH,Wind Direction,Wind SpeedMPH,Gust SpeedMPH,PrecipitationIn,Events,Conditions,WindDirDegrees,DateUTC
12:20 AM,75.2,55.4,50,29.98,6.2,West,6.9,-,N/A,,Partly Cloudy,280,2013-09-24 21:20:00
12:50 AM,73.4,55.4,53,29.98,6.2,WSW,4.6,-,N/A,,Partly Cloudy,250,2013-09-24 21:50:00
1:20 AM,73.4,57.2,57,29.98,6.2,Variable,2.3,-,N/A,,Partly Cloudy,0,2013-09-24 22:20:00
1:50 AM,73.4,57.2,57,29.98,6.2,Variable,1.2,-,N/A,,Partly Cloudy,0,2013-09-24 22:50:00
2:20 AM,71.6,57.2,60,29.98,6.2,SSE,4.6,-,N/A,,Partly Cloudy,150,2013-09-24 23:20:00
2:50 AM,71.6,59.0,64,29.98,6.2,SSE,5.8,-,N/A,,Partly Cloudy,160,2013-09-24 23:50:00
3:20 AM,69.8,59.0,68,29.98,6.2,SSE,5.8,-,N/A,,Partly Cloudy,160,2013-09-25 00:20:00
3:50 AM,69.8,57.2,64,29.95,6.2,South,4.6,-,N/A,,Partly Cloudy,170,2013-09-25 00:50:00
4:20 AM,69.8,57.2,64,29.95,6.2,SSE,5.8,-,N/A,,Partly Cloudy,150,2013-09-25 01:20:00
4:50 AM,69.8,57.2,64,29.95,6.2,South,4.6,-,N/A,,Partly Cloudy,180,2013-09-25 01:50:00
5:20 AM,69.8,57.2,64,29.98,6.2,Variable,2.3,-,N/A,,Scattered Clouds,0,2013-09-25 02:20:00
5:50 AM,69.8,57.2,64,29.98,6.2,Variable,3.5,-,N/A,,Scattered Clouds,0,2013-09-25 02:50:00
6:20 AM,69.8,57.2,64,29.98,6.2,Variable,3.5,-,N/A,,Scattered Clouds,0,2013-09-25 03:20:00
6:50 AM,69.8,57.2,64,29.98,6.2,Variable,3.5,-,N/A,,Partly Cloudy,0,2013-09-25 03:50:00
7:20 AM,69.8,57.2,64,29.98,6.2,SSE,4.6,-,N/A,,Partly Cloudy,150,2013-09-25 04:20:00
7:50 AM,71.6,57.2,60,30.01,6.2,SSE,5.8,-,N/A,,Scattered Clouds,160,2013-09-25 04:50:00
8:20 AM,73.4,59.0,61,30.01,6.2,South,4.6,-,N/A,,Scattered Clouds,190,2013-09-25 05:20:00
8:50 AM,75.2,59.0,57,30.01,6.2,South,6.9,-,N/A,,Scattered Clouds,190,2013-09-25 05:50:00
9:00 AM,74,59,49,30.02,6,South,6.9,,,,Partly Cloudy,190,2013-09-25 06:00:00
9:20 AM,77.0,57.2,50,30.04,6.2,SSW,6.9,-,N/A,,Scattered Clouds,200,2013-09-25 06:20:00
9:50 AM,78.8,53.6,42,30.04,6.2,SW,5.8,-,N/A,,Partly Cloudy,220,2013-09-25 06:50:00
10:20 AM,78.8,55.4,44,30.04,6.2,SW,8.1,-,N/A,,Scattered Clouds,230,2013-09-25 07:20:00
10:50 AM,78.8,55.4,44,30.04,6.2,West,11.5,-,N/A,,Scattered Clouds,280,2013-09-25 07:50:00
11:20 AM,80.6,53.6,39,30.04,6.2,West,9.2,-,N/A,,Scattered Clouds,270,2013-09-25 08:20:00
11:50 AM,80.6,53.6,39,30.04,6.2,West,10.4,-,N/A,,Scattered Clouds,270,2013-09-25 08:50:00
12:20 PM,82.4,50.0,32,30.04,6.2,West,11.5,-,N/A,,Partly Cloudy,280,2013-09-25 09:20:00
12:50 PM,82.4,53.6,37,30.01,6.2,West,12.7,-,N/A,,Partly Cloudy,270,2013-09-25 09:50:00
1:20 PM,80.6,55.4,42,30.01,6.2,WNW,11.5,-,N/A,,Partly Cloudy,290,2013-09-25 10:20:00
1:50 PM,82.4,55.4,39,30.04,6.2,WNW,12.7,-,N/A,,Partly Cloudy,290,2013-09-25 10:50:00
2:20 PM,82.4,55.4,39,30.04,6.2,WNW,15.0,-,N/A,,Partly Cloudy,290,2013-09-25 11:20:00
2:50 PM,80.6,57.2,45,30.04,6.2,West,12.7,-,N/A,,Scattered Clouds,280,2013-09-25 11:50:00
3:00 PM,81,57,33,30.03,6,West,12.7,,,,Partly Cloudy,280,2013-09-25 12:00:00
3:20 PM,82.4,53.6,37,30.04,6.2,WNW,12.7,-,N/A,,Partly Cloudy,300,2013-09-25 12:20:00
3:50 PM,82.4,55.4,39,30.04,6.2,WNW,12.7,-,N/A,,Partly Cloudy,300,2013-09-25 12:50:00
4:20 PM,80.6,53.6,39,30.04,6.2,West,11.5,-,N/A,,Partly Cloudy,280,2013-09-25 13:20:00
4:50 PM,80.6,55.4,42,30.04,6.2,WNW,11.5,-,N/A,,Partly Cloudy,300,2013-09-25 13:50:00
5:20 PM,78.8,53.6,42,30.04,6.2,WNW,10.4,-,N/A,,Partly Cloudy,300,2013-09-25 14:20:00
5:50 PM,78.8,51.8,39,30.04,6.2,WNW,10.4,-,N/A,,Partly Cloudy,300,2013-09-25 14:50:00
6:20 PM,78.8,53.6,42,30.04,6.2,WNW,6.9,-,N/A,,Partly Cloudy,300,2013-09-25 15:20:00
6:50 PM,77.0,55.4,47,30.04,6.2,WNW,5.8,-,N/A,,Partly Cloudy,300,2013-09-25 15:50:00
7:20 PM,77.0,55.4,47,30.04,6.2,WNW,4.6,-,N/A,,Partly Cloudy,290,2013-09-25 16:20:00
7:50 PM,77.0,55.4,47,30.04,6.2,WNW,4.6,-,N/A,,Partly Cloudy,290,2013-09-25 16:50:00
8:20 PM,75.2,55.4,50,30.06,6.2,Variable,3.5,-,N/A,,Partly Cloudy,0,2013-09-25 17:20:00
8:50 PM,75.2,55.4,50,30.06,-9999.0,Variable,3.5,-,N/A,,Clear,0,2013-09-25 17:50:00
9:00 PM,75,56,40,30.06,6,,3.5,,,,,,2013-09-25 18:00:00
9:20 PM,75.2,55.4,50,30.06,-9999.0,Variable,2.3,-,N/A,,Clear,0,2013-09-25 18:20:00
9:50 PM,75.2,55.4,50,30.06,-9999.0,Variable,1.2,-,N/A,,Clear,0,2013-09-25 18:50:00
10:20 PM,75.2,55.4,50,30.06,-9999.0,Variable,3.5,-,N/A,,Clear,0,2013-09-25 19:20:00
10:50 PM,73.4,55.4,53,30.06,-9999.0,Variable,1.2,-,N/A,,Clear,0,2013-09-25 19:50:00
11:20 PM,73.4,55.4,53,30.06,-9999.0,Variable,3.5,-,N/A,,Clear,0,2013-09-25 20:20:00
11:50 PM,71.6,57.2,60,30.06,6.2,SE,5.8,-,N/A,,Partly Cloudy,140,2013-09-25 20:50:00